TimeCDT,TemperatureF,Dew PointF,Humidity,Sea Level PressureIn,VisibilityMPH,Wind Direction,Wind SpeedMPH,Gust SpeedMPH,PrecipitationIn,Events,Conditions,WindDirDegrees,DateUTC
12:53 AM,50.0,33.1,52,30.26,10.0,East,3.5,-,N/A,,Clear,80,2014-03-26 05:53:00
1:53 AM,48.0,33.1,56,30.25,10.0,East,3.5,-,N/A,,Clear,80,2014-03-26 06:53:00
2:53 AM,48.0,30.9,52,30.26,10.0,ESE,3.5,-,N/A,,Clear,110,2014-03-26 07:53:00
3:53 AM,46.0,34.0,63,30.26,10.0,Calm,Calm,-,N/A,,Clear,0,2014-03-26 08:53:00
4:53 AM,45.0,30.9,58,30.24,10.0,East,4.6,-,N/A,,Clear,90,2014-03-26 09:53:00
5:53 AM,44.1,30.9,60,30.27,10.0,East,3.5,-,N/A,,Clear,90,2014-03-26 10:53:00
6:53 AM,43.0,32.0,65,30.29,10.0,Calm,Calm,-,N/A,,Clear,0,2014-03-26 11:53:00
7:53 AM,45.0,33.1,63,30.33,10.0,Calm,Calm,-,N/A,,Clear,0,2014-03-26 12:53:00
8:53 AM,46.9,35.1,63,30.34,10.0,East,4.6,-,N/A,,Clear,90,2014-03-26 13:53:00
9:53 AM,50.0,37.0,61,30.34,10.0,Variable,6.9,-,N/A,,Clear,0,2014-03-26 14:53:00
10:53 AM,53.1,33.1,47,30.34,10.0,ESE,5.8,-,N/A,,Clear,110,2014-03-26 15:53:00
11:53 AM,54.0,32.0,43,30.33,10.0,SE,8.1,-,N/A,,Clear,140,2014-03-26 16:53:00
12:53 PM,55.0,33.1,43,30.32,10.0,SSE,9.2,-,N/A,,Clear,150,2014-03-26 17:53:00
1:53 PM,55.9,34.0,44,30.24,10.0,East,15.0,21.9,N/A,,Clear,100,2014-03-26 18:53:00
2:53 PM,59.0,34.0,39,30.22,10.0,ESE,10.4,19.6,N/A,,Clear,110,2014-03-26 19:53:00
3:53 PM,59.0,33.1,38,30.19,10.0,Variable,5.8,-,N/A,,Clear,0,2014-03-26 20:53:00
4:53 PM,59.0,35.1,41,30.18,10.0,ESE,5.8,-,N/A,,Overcast,110,2014-03-26 21:53:00
5:53 PM,57.9,36.0,44,30.19,10.0,ESE,4.6,-,N/A,,Overcast,120,2014-03-26 22:53:00
6:53 PM,57.0,37.9,49,30.20,10.0,SSE,4.6,-,N/A,,Overcast,160,2014-03-26 23:53:00
7:53 PM,55.0,41.0,59,30.19,10.0,SSE,9.2,-,0.00,,Overcast,160,2014-03-27 00:53:00
8:53 PM,51.1,43.0,74,30.16,10.0,Variable,6.9,-,0.01,Rain,Light Rain,0,2014-03-27 01:53:00
9:53 PM,50.0,43.0,77,30.18,10.0,ENE,5.8,-,0.01,,Mostly Cloudy,70,2014-03-27 02:53:00
10:53 PM,51.1,43.0,74,30.16,10.0,ESE,5.8,-,N/A,,Scattered Clouds,110,2014-03-27 03:53:00
11:53 PM,50.0,43.0,77,30.15,10.0,East,4.6,-,N/A,,Clear,100,2014-03-27 04:53:00